FW8795 Weather Reports


time (UTC)temp
C
wind
direction
speed
KPH
gust
KPH
rain 1hr
cm
rain 24hr
cm
rain mn
cm
humidity
%
barometer
mb
20260503034055 27 239 0.0 3.2 0.00 0.00 0.00 75 1014.9
20260503033558 27 0 0.0 1.6 0.00 0.00 0.00 75 1014.9
20260503033058 27 0 0.0 3.2 0.00 0.00 0.00 74 1014.7
20260503032555 27 0 0.0 3.2 0.00 0.00 0.00 74 1014.6
20260503032055 27 0 0.0 3.2 0.00 0.00 0.00 74 1014.7
20260503031603 27 0 0.0 3.2 0.00 0.00 0.00 74 1014.6
20260503031055 27 0 0.0 4.8 0.00 0.00 0.00 74 1014.6
20260503030554 27 215 0.0 4.8 0.00 0.00 0.00 73 1014.5
20260503030126 27 215 1.6 4.8 0.00 0.00 0.00 73 1014.6
20260503025554 27 0 0.0 4.8 0.00 0.00 0.00 72 1014.5
20260503025058 27 163 1.6 4.8 0.00 0.00 0.00 72 1014.4
20260503024604 27 220 0.0 3.2 0.00 0.00 0.00 71 1014.5
20260503024056 27 222 0.0 3.2 0.00 0.00 0.00 71 1014.5
20260503023557 27 227 0.0 6.4 0.00 0.00 0.00 71 1014.6
20260503023059 27 257 0.0 6.4 0.00 0.00 0.00 70 1014.6
20260503022556 27 192 0.0 6.4 0.00 0.00 0.00 70 1014.5
20260503022056 27 230 1.6 6.4 0.00 0.00 0.00 69 1014.5
20260503021606 27 209 1.6 6.4 0.00 0.00 0.00 69 1014.5
20260503021055 27 0 1.6 6.4 0.00 0.00 0.00 68 1014.4
20260503020556 28 226 1.6 6.4 0.00 0.00 0.00 67 1014.4
20260503020054 28 168 1.6 6.4 0.00 0.00 0.00 66 1014.5
20260503015554 28 230 0.0 4.8 0.00 0.00 0.00 66 1014.5
20260503015054 28 222 1.6 4.8 0.00 0.00 0.00 65 1014.4
20260503014605 28 36 0.0 3.2 0.00 0.00 0.00 64 1014.4
20260503014054 28 155 0.0 4.8 0.00 0.00 0.00 64 1014.3
20260503013556 28 0 0.0 4.8 0.00 0.00 0.00 63 1014.2
20260503013055 28 0 0.0 6.4 0.00 0.00 0.00 62 1014.2
20260503012555 28 253 0.0 6.4 0.00 0.00 0.00 61 1014.2
20260503012056 28 101 0.0 4.8 0.00 0.00 0.00 60 1014.1
20260503011559 28 0 0.0 3.2 0.00 0.00 0.00 60 1014.0
20260503011057 28 0 0.0 4.8 0.00 0.00 0.00 59 1013.9
20260503010556 28 215 0.0 8.0 0.00 0.00 0.00 59 1013.8
20260503010107 29 0 1.6 8.0 0.00 0.00 0.00 58 1013.8
20260503005559 29 0 0.0 11.3 0.00 0.00 0.00 57 1013.7
20260503005056 29 317 1.6 11.3 0.00 0.00 0.00 57 1013.7
20260503004555 29 207 1.6 9.7 0.00 0.00 0.00 56 1013.6
20260503004052 29 0 0.0 9.7 0.00 0.00 0.00 56 1013.6
20260503003553 30 263 1.6 4.8 0.00 0.00 0.00 56 1013.4
20260503003104 30 240 0.0 6.4 0.00 0.00 0.00 55 1013.4
20260503002554 30 0 0.0 6.4 0.00 0.00 0.00 55 1013.3
20260503002054 30 204 1.6 8.0 0.00 0.00 0.00 54 1013.2
20260503001608 30 202 1.6 8.0 0.00 0.00 0.00 53 1013.1
20260503001056 30 0 1.6 8.0 0.00 0.00 0.00 52 1013.0
20260503000556 30 236 1.6 8.0 0.00 0.00 0.00 51 1012.8
20260503000122 31 214 0.0 16.1 0.00 0.00 0.00 48 1012.8
20260502235556 31 0 1.6 16.1 0.00 0.00 0.00 47 1012.8
20260502235056 31 216 3.2 16.1 0.00 0.00 0.00 46 1012.7
20260502234605 31 0 1.6 4.8 0.00 0.00 0.00 45 1012.5
20260502234055 31 245 1.6 4.8 0.00 0.00 0.00 44 1012.4
20260502233554 31 0 0.0 3.2 0.00 0.00 0.00 44 1012.3
20260502233053 31 206 0.0 6.4 0.00 0.00 0.00 43 1012.2
20260502232555 31 0 0.0 6.4 0.00 0.00 0.00 43 1012.2
20260502232052 31 202 0.0 6.4 0.00 0.00 0.00 42 1012.0
20260502231605 32 218 0.0 6.4 0.00 0.00 0.00 41 1011.9
20260502231056 32 155 0.0 6.4 0.00 0.00 0.00 41 1011.9
20260502230559 32 229 3.2 6.4 0.00 0.00 0.00 41 1011.7
20260502230058 32 178 3.2 6.4 0.00 0.00 0.00 41 1011.6
20260502225554 32 263 1.6 6.4 0.00 0.00 0.00 41 1011.6
20260502225056 32 0 1.6 6.4 0.00 0.00 0.00 40 1011.6
20260502224555 32 194 1.6 11.3 0.00 0.00 0.00 40 1011.6
20260502224056 32 274 0.0 11.3 0.00 0.00 0.00 40 1011.5
20260502223557 32 225 3.2 14.5 0.00 0.00 0.00 40 1011.5
20260502223059 32 215 1.6 14.5 0.00 0.00 0.00 42 1011.5
20260502222559 33 216 3.2 12.9 0.00 0.00 0.00 41 1011.4
20260502222056 33 233 1.6 11.3 0.00 0.00 0.00 41 1011.5
20260502221556 33 246 1.6 11.3 0.00 0.00 0.00 40 1011.5
20260502221053 33 207 3.2 9.7 0.00 0.00 0.00 40 1011.4
20260502220553 33 208 1.6 11.3 0.00 0.00 0.00 40 1011.5
20260502220056 33 207 1.6 11.3 0.00 0.00 0.00 39 1011.4
20260502215553 33 223 4.8 9.7 0.00 0.00 0.00 38 1011.4
20260502215056 33 243 1.6 9.7 0.00 0.00 0.00 37 1011.3
20260502214601 34 263 1.6 9.7 0.00 0.00 0.00 36 1011.3
20260502214056 34 254 1.6 8.0 0.00 0.00 0.00 37 1011.3
20260502213556 34 232 1.6 6.4 0.00 0.00 0.00 36 1011.3
20260502213055 34 210 1.6 6.4 0.00 0.00 0.00 36 1011.2
20260502212556 34 0 1.6 6.4 0.00 0.00 0.00 35 1011.2
20260502212056 35 17 1.6 11.3 0.00 0.00 0.00 35 1011.1
20260502211558 35 137 3.2 11.3 0.00 0.00 0.00 34 1011.0
20260502211056 35 103 3.2 8.0 0.00 0.00 0.00 34 1011.0
20260502210555 35 198 1.6 11.3 0.00 0.00 0.00 34 1010.9
20260502210059 35 248 1.6 14.5 0.00 0.00 0.00 34 1011.0
20260502205555 35 267 3.2 14.5 0.00 0.00 0.00 35 1011.1
20260502205056 35 215 4.8 14.5 0.00 0.00 0.00 35 1010.9
20260502204612 35 224 3.2 12.9 0.00 0.00 0.00 34 1011.0
20260502204053 35 263 4.8 12.9 0.00 0.00 0.00 33 1010.9
20260502203553 35 194 3.2 11.3 0.00 0.00 0.00 34 1011.0
20260502203115 35 276 1.6 14.5 0.00 0.00 0.00 36 1010.9
20260502202554 35 258 3.2 14.5 0.00 0.00 0.00 35 1011.0
20260502202056 35 271 4.8 14.5 0.00 0.00 0.00 39 1011.0
20260502201559 35 314 3.2 9.7 0.00 0.00 0.00 38 1011.0
20260502201056 35 223 1.6 12.9 0.00 0.00 0.00 37 1011.1
20260502200557 35 180 4.8 12.9 0.00 0.00 0.00 38 1011.3
20260502200058 35 221 3.2 12.9 0.00 0.00 0.00 40 1011.2
20260502195555 35 208 4.8 14.5 0.00 0.00 0.00 38 1011.3
20260502195054 35 184 3.2 14.5 0.00 0.00 0.00 39 1011.4
20260502194604 35 164 3.2 11.3 0.00 0.00 0.00 38 1011.5
20260502194056 35 281 3.2 11.3 0.00 0.00 0.00 39 1011.5
20260502193556 35 189 3.2 11.3 0.00 0.00 0.00 40 1011.6
20260502193057 35 129 4.8 11.3 0.00 0.00 0.00 40 1011.7
20260502192557 35 234 3.2 11.3 0.00 0.00 0.00 40 1011.7
20260502192055 35 247 3.2 11.3 0.00 0.00 0.00 41 1011.8
20260502191600 35 254 4.8 11.3 0.00 0.00 0.00 38 1011.8
20260502191052 35 291 3.2 11.3 0.00 0.00 0.00 42 1011.7
20260502190555 35 209 1.6 14.5 0.00 0.00 0.00 42 1011.8
20260502190057 35 222 3.2 14.5 0.00 0.00 0.00 41 1011.8
20260502185556 34 126 1.6 12.9 0.00 0.00 0.00 53 1012.0
20260502185052 35 242 3.2 14.5 0.00 0.00 0.00 43 1012.0
20260502184601 34 192 3.2 14.5 0.00 0.00 0.00 46 1011.9
20260502184056 33 210 1.6 11.3 0.00 0.00 0.00 49 1011.9
20260502183557 32 0 0.0 9.7 0.00 0.00 0.00 59 1011.9
20260502183057 33 225 3.2 9.7 0.00 0.00 0.00 57 1012.0
20260502182555 33 209 1.6 6.4 0.00 0.00 0.00 57 1012.1
20260502182052 32 84 1.6 11.3 0.00 0.00 0.00 57 1012.2
20260502181608 33 234 3.2 11.3 0.00 0.00 0.00 59 1012.2
20260502181052 33 142 1.6 16.1 0.00 0.00 0.00 58 1012.3
20260502180555 33 187 4.8 16.1 0.00 0.00 0.00 60 1012.1
20260502164056 32 221 3.2 12.9 0.00 0.00 0.00 62 1012.6
20260502163556 32 127 3.2 14.5 0.00 0.00 0.00 63 1012.6
20260502163104 32 183 4.8 14.5 0.00 0.00 0.00 60 1012.6
20260502162556 32 159 3.2 14.5 0.00 0.00 0.00 60 1012.6
20260502162056 31 201 3.2 14.5 0.00 0.00 0.00 66 1012.7
20260502161559 32 130 3.2 14.5 0.00 0.00 0.00 65 1012.8
20260502161056 32 199 3.2 11.3 0.00 0.00 0.00 66 1012.8
20260502160556 32 151 1.6 8.0 0.00 0.00 0.00 66 1012.8
20260502152056 31 182 3.2 14.5 0.00 0.00 0.00 67 1013.1
20260502151604 31 171 4.8 14.5 0.00 0.00 0.00 67 1013.2
20260502151058 31 192 4.8 14.5 0.00 0.00 0.00 67 1013.1
20260502150555 31 104 1.6 16.1 0.00 0.00 0.00 69 1013.2
20260502130555 28 160 3.2 11.3 0.00 0.00 0.00 77 1012.8
20260502130105 27 135 3.2 11.3 0.00 0.00 0.00 78 1012.8
20260502123555 27 192 1.6 8.0 0.00 0.00 0.00 80 1013.0
20260502123108 27 151 1.6 8.0 0.00 0.00 0.00 80 1013.0
20260502122556 26 153 0.0 8.0 0.00 0.00 0.00 81 1013.0
20260502122056 26 171 1.6 8.0 0.00 0.00 0.00 82 1012.9
20260502121602 26 129 0.0 6.4 0.00 0.00 0.00 83 1012.9
20260502121056 26 218 0.0 6.4 0.00 0.00 0.00 83 1013.0
20260502120559 26 0 0.0 6.4 0.00 0.00 0.00 84 1012.9
20260502120111 25 0 1.6 6.4 0.00 0.00 0.00 84 1012.9
20260502115556 25 0 0.0 1.6 0.00 0.00 0.00 85 1012.9
20260502115056 25 0 0.0 1.6 0.00 0.00 0.00 85 1012.9
20260502114607 25 0 0.0 1.6 0.00 0.00 0.00 85 1012.9
20260502114056 25 0 0.0 1.6 0.00 0.00 0.00 85 1012.9
20260502113556 25 0 0.0 3.2 0.00 0.00 0.00 85 1013.0
20260502113101 25 0 0.0 4.8 0.00 0.00 0.00 86 1012.9
20260502112557 25 0 0.0 4.8 0.00 0.00 0.00 86 1013.0
20260502112054 25 0 0.0 1.6 0.00 0.00 0.00 86 1013.0
20260502111605 24 0 0.0 1.6 0.00 0.00 0.00 86 1013.0
20260502111055 24 0 0.0 1.6 0.00 0.00 0.00 86 1012.9
20260502110558 24 0 0.0 0.0 0.00 0.00 0.00 85 1013.0
20260502110108 24 0 0.0 0.0 0.00 0.00 0.00 85 1013.0
20260502105557 24 0 0.0 0.0 0.00 0.00 0.00 85 1013.0
20260502105057 24 0 0.0 0.0 0.00 0.00 0.00 85 1012.9
20260502104555 24 0 0.0 0.0 0.00 0.00 0.00 85 1012.9
20260502104056 25 0 0.0 0.0 0.00 0.00 0.00 85 1012.9
20260502103556 25 0 0.0 0.0 0.00 0.00 0.00 84 1012.8
20260502103100 25 0 0.0 1.6 0.00 0.00 0.00 84 1012.8
20260502102556 25 0 0.0 1.6 0.00 0.00 0.00 84 1012.8
20260502102055 25 0 0.0 0.0 0.00 0.00 0.00 84 1012.9
20260502101554 25 0 0.0 1.6 0.00 0.00 0.00 84 1012.9
20260502101057 25 0 0.0 1.6 0.00 0.00 0.00 84 1012.9
20260502100552 25 0 0.0 1.6 0.00 0.00 0.00 85 1012.9
20260502091052 25 0 0.0 3.2 0.00 0.00 0.00 86 1012.7
20260502090559 25 0 0.0 3.2 0.00 0.00 0.00 86 1012.7
20260502080106 24 0 0.0 0.0 0.00 0.00 0.00 86 1012.7
20260502071056 24 0 0.0 0.0 0.00 0.00 0.00 86 1012.7
20260502070556 24 0 0.0 0.0 0.00 0.00 0.00 86 1012.7
20260502070056 24 0 0.0 0.0 0.00 0.00 0.00 86 1012.6
20260502065556 24 0 0.0 0.0 0.00 0.00 0.00 86 1012.7
20260502065057 24 0 0.0 0.0 0.00 0.00 0.00 86 1012.8
20260502064600 24 0 0.0 0.0 0.00 0.00 0.00 85 1012.8
20260502064055 24 0 0.0 0.0 0.00 0.00 0.00 85 1012.8
20260502063556 24 0 0.0 1.6 0.00 0.00 0.00 85 1012.8
20260502063055 24 0 0.0 1.6 0.00 0.00 0.00 85 1012.8
20260502062556 24 0 0.0 1.6 0.00 0.00 0.00 85 1012.8
20260502062056 24 0 0.0 1.6 0.00 0.00 0.00 85 1012.9
20260502061554 24 0 0.0 1.6 0.00 0.00 0.00 85 1012.9
20260502061056 24 0 0.0 1.6 0.00 0.00 0.00 85 1012.9
20260502060556 24 0 0.0 1.6 0.00 0.00 0.00 85 1012.9
20260502060058 24 0 0.0 1.6 0.00 0.00 0.00 85 1012.9
20260502055553 24 0 0.0 1.6 0.00 0.00 0.00 85 1012.8
20260502055053 24 0 0.0 1.6 0.00 0.00 0.00 85 1012.8
20260502054559 24 0 0.0 1.6 0.00 0.00 0.00 84 1012.9
20260502054055 24 0 0.0 1.6 0.00 0.00 0.00 84 1012.9
20260502053556 24 0 0.0 1.6 0.00 0.00 0.00 84 1012.9
20260502053055 24 0 0.0 1.6 0.00 0.00 0.00 84 1012.9
20260502052552 24 0 0.0 1.6 0.00 0.00 0.00 84 1013.0
20260502052057 24 0 0.0 1.6 0.00 0.00 0.00 84 1013.0
20260502051554 24 0 0.0 1.6 0.00 0.00 0.00 84 1013.1
20260502051057 24 0 0.0 1.6 0.00 0.00 0.00 84 1013.1
20260502050556 24 0 0.0 1.6 0.00 0.00 0.00 84 1013.2
20260502050054 24 0 0.0 1.6 0.00 0.00 0.00 84 1013.1
20260502045555 25 0 0.0 1.6 0.00 0.00 0.00 84 1013.2
20260502045052 25 0 0.0 1.6 0.00 0.00 0.00 84 1013.2
20260502044556 25 0 0.0 1.6 0.00 0.00 0.00 84 1013.3
20260502044052 25 0 0.0 1.6 0.00 0.00 0.00 84 1013.3
20260502043552 25 0 0.0 1.6 0.00 0.00 0.00 83 1013.4
20260502043055 25 0 0.0 0.0 0.00 0.00 0.00 83 1013.4
20260502042552 25 0 0.0 0.0 0.00 0.00 0.00 83 1013.4
20260502042052 25 0 0.0 0.0 0.00 0.00 0.00 83 1013.4
20260502041555 25 0 0.0 1.6 0.00 0.00 0.00 83 1013.6
20260502041057 25 0 0.0 1.6 0.00 0.00 0.00 83 1013.6
20260502040626 25 0 0.0 1.6 0.00 0.00 0.00 83 1013.8
20260502040106 25 0 0.0 3.2 0.00 0.00 0.00 82 1013.8
20260502035556 25 0 0.0 3.2 0.00 0.00 0.00 82 1013.8
20260502035056 25 0 0.0 3.2 0.00 0.00 0.00 82 1013.8
20260502034557 25 0 0.0 1.6 0.00 0.00 0.00 82 1013.8